Regional Weather Roundup
Issued by NWS Green Bay, WI

Home | Current Version | Previous Version | Graphics & Text | Print | Product List | Glossary Off
Versions: 1 2 3 4 5 6 7 8 9 10 11 12 13 14 15 16 17 18 19 20 21 22 23 24 25 26 27 28 29 30 31 32 33 34 35 36 37 38 39 40 41 42 43 44 45 46 47 48 49 50

000
ASUS43 KGRB 201711
RWRGRB

NORTH-CENTRAL AND NORTHEAST WISCONSIN REGIONAL WEATHER ROUNDUP
NATIONAL WEATHER SERVICE GREEN BAY WI
1200 PM CDT FRI APR 20 2018

WIZ005-009-010>012-018-019-201800-
NORTH CENTRAL WISCONSIN

CITY           SKY/WX    TMP DP  RH WIND       PRES   REMARKS
IRONWOOD       FAIR      53  12  19 W6        30.45S
MANITOWISH WTR FAIR      50  15  24 W3        30.44F
ARBOR VITAE    FAIR      52  13  21 W3        30.44F
EAGLE RIVER    FAIR      52   9  17 W3        30.44S
LAND O LAKES   FAIR      54   8  16 NW6       30.45F
RHINELANDER    FAIR      51  14  22 SW8       30.46S
PHILLIPS       FAIR      50  17  27 SW6       30.46S
ANTIGO         FAIR      45  24  43 E5        30.47F
TOMAHAWK       FAIR      52  12  20 CALM      30.46F
MERRILL          N/A     51  17  25 SW7       30.48F
$$

WIZ013-073-201800-
NORTHEAST WISCONSIN

CITY           SKY/WX    TMP DP  RH WIND       PRES   REMARKS
IRON MOUNTAIN  FAIR      55  12  18 NW7       30.43F
MARINETTE      FAIR      48  23  37 SE10      30.49F
OCONTO         FAIR      48  15  26 SE7       30.49F
$$

WIZ017-030-035>037-045-201800-
CENTRAL WISCONSIN

CITY           SKY/WX    TMP DP  RH WIND       PRES   REMARKS
MEDFORD        FAIR      46  23  40 S3        30.47F
WAUSAU         FAIR      50  14  23 CALM      30.46F
MOSINEE        MOSUNNY   50  19  29 SW6       30.49F
MARSHFIELD     FAIR      48  23  37 SW3       30.47F
WISC RAPIDS    FAIR      52  19  27 CALM      30.50F
STEVENS POINT  FAIR      49  13  23 W7        30.49S
WAUPACA        FAIR      54  13  19 CALM      30.50S
SHAWANO        FAIR      56   6  13 SW5       30.49S
CLINTONVILLE   FAIR      49  17  28 S3        30.49F
WAUTOMA        FAIR      52  17  25 SW5       30.49
$$

WIZ038-039-048-051-201800-
FOX VALLEY

CITY           SKY/WX    TMP DP  RH WIND       PRES   REMARKS
NWS GREEN BAY  FAIR      44  22  41 S6        30.51S
APPLETON       MOSUNNY   48  12  23 VRB3      30.49S
OSHKOSH        FAIR      43  27  53 S5        30.50F
FOND DU LAC    FAIR      45  21  38 SE3       30.50F
$$

WIZ022-050-052-201800-
EAST CENTRAL WISCONSIN

CITY           SKY/WX    TMP DP  RH WIND       PRES   REMARKS
EPHRAIM        FAIR      50   3  15 SW5       30.48F
WASHINGTON ISL FAIR      45  13  27 SW7       30.48S
STURGEON BAY   FAIR      50  10  20 W6        30.50F
MANITOWOC      FAIR      48  17  29 S8        30.52S
SHEBOYGAN      FAIR      49  24  37 S9        30.51S
$$

LMZ563-521-522-541>543-201800-
LAKESHORE

STATION/POSITION TIME  TEMP    WIND        PRES    VSBY  WAVE
                       AIR SEA DIR/SP/G                  HT/PER
                 (UTC) (F)     (DEG/KT/KT) (MB)    (MI)  (FT/S)
SHEBOYGAN LKSHOR 1700   42     150/ 11/ 11 1033.6R
KEWAUNEE LKSHORE 1648   40     180/  6/  7 1032.1F
NORTHPORT PIER   1640   37                 1032.2S
SISTER BAY LKSHO 1627   47        CALM       N/A
MENOMINEE LKSHOR 1648   40     160/  9/ 10 1031.9F
$$



USA.gov is the U.S. government's official web portal to all federal, state and local government web resources and services.